Regional Weather Roundup
Issued by NWS

Home | Current Version | Previous Version | Text Only | Print | Product List | Glossary Off
Versions: 1 2 3 4 5 6 7 8 9 10 11 12 13 14 15 16 17 18 19 20 21 22 23 24 25 26 27 28 29 30 31 32 33 34 35 36 37 38 39 40 41 42 43 44 45 46 47 48 49 50

915
ASUS44 KJAN 242310
RWRMS

MISSISSIPPI HOURLY WEATHER ROUNDUP
NATIONAL WEATHER SERVICE JACKSON MS
500 PM CST SAT JAN 24 2015

NOTE: "FAIR: INDICATES FEW OR NO CLOUDS BELOW 12,000 FEET WITH NO
SIGNIFICANT WEATHER AND/OR OBSTRUCTIONS TO VISIBILITY.

MSZ001>002-007>008-010>013-018>021-025>028-034>036-250000-
NORTHWEST MISSISSIPPI

CITY           SKY/WX    TMP DP  RH WIND       PRES   REMARKS
CLARKSDALE     FAIR      54  37  54 S8        29.96S
CLEVELAND      FAIR      53  41  65 SW8       29.97F
GREENWOOD      CLEAR     51  36  56 SW8       30.00S
GREENVILLE     CLEAR     54  36  50 SW12      29.99R
GRENADA        FAIR      50  32  50 SW7       29.98S
OLIVE BRANCH   PTCLDY    50  34  53 SW12      29.92F
OXFORD         FAIR      48  28  46 SW7       29.97S
TUNICA         CLEAR     52  36  54 SW9       29.95S
$$

MSZ003>006-009-014>017-022>024-029>033-037>039-250000-
NORTHEAST MISSISSIPPI

CITY           SKY/WX    TMP DP  RH WIND       PRES   REMARKS
COLUMBUS AFB   CLEAR     49  32  52 SW6       29.99S
CORINTH        FAIR      50  28  43 SW7G13    29.92F
GOLDN TRIANGLE CLEAR     52  32  46 SW6       29.99S
STARKVILLE     FAIR      50  32  50 CALM      29.99F
TUPELO         CLEAR     50  31  48 SW7       29.96F
$$

MSZ040-058-250000-
CENTRAL MISSISSIPPI

CITY           SKY/WX    TMP DP  RH WIND       PRES   REMARKS
JACKSON INTL   PTCLDY    52  30  43 W6        30.03R
JACKSON HAWKNS CLEAR     51  31  46 W8        30.03R
MERIDIAN KEY   CLEAR     50  30  46 SW5       30.02S
MERIDIAN NAS   CLEAR     51  29  42 W5        30.02R
RAYMOND        FAIR      50  46  87 SW6       30.03S
VICKSBURG      PTCLDY    54  34  46 SW3       30.03S
$$

MSZ059>079-250000-
SOUTH MISSISSIPPI

CITY           SKY/WX    TMP DP  RH WIND       PRES   REMARKS
BROOKHAVEN     FAIR      54  32  43 SW7       30.05S
HATTIESBURG    CLEAR     55  31  39 W6        30.05F
MCCOMB         CLEAR     54  31  41 W8        30.05F
NATCHEZ        CLEAR     55  36  47 SW9       30.05F
PINE BELT      CLEAR     54  30  40 CALM      30.05F
$$

MSZ080>082-250000-
COASTAL MISSISSIPPI

CITY           SKY/WX    TMP DP  RH WIND       PRES   REMARKS
BAY ST LOUIS   CLEAR     55  27  33 NW5       30.08R
BILOXI         CLEAR     56  38  50 NW6       30.07R
PASCAGOULA     CLEAR     54  31  41 VRB3      30.07R
GULFPORT       CLEAR     55  32  41 W6        30.07R
$$



USA.gov is the U.S. government's official web portal to all federal, state and local government web resources and services.